Regional Weather Roundup
Issued by NWS Portland, ME

Current Version | Previous Version | Text Only | Print | Product List | Glossary Off
Versions: 1 2 3 4 5 6 7 8 9 10 11 12 13 14 15 16 17 18 19 20 21 22 23 24 25 26 27 28 29 30 31 32 33 34 35 36 37 38 39 40 41 42 43 44 45 46 47 48 49 50

000
ASUS41 KGYX 230005
RWRGYX
WEATHER ROUNDUP FOR MAINE AND NEW HAMPSHIRE
NATIONAL WEATHER SERVICE GRAY ME
700 PM EST WED FEB 22 2017

MEZ002-005-006-010-012-015-018-020-021-024-026-027-029-230100-
MAINE

CITY           SKY/WX    TMP DP  RH WIND       PRES   REMARKS
PORTLAND       CLEAR     36  30  79 CALM      29.91S
6HR MIN TEMP:  35; 6HR MAX TEMP:  48;

SANFORD        CLEAR     32  28  85 CALM      29.91R
BAR HARBOR     CLEAR     35  31  85 S6        29.91S
WISCASSET      CLEAR     34  27  75 CALM      29.92S
6HR MIN TEMP:  34; 6HR MAX TEMP:  54;

ROCKLAND       CLEAR     33  31  92 W5        29.91F
FRYEBURG       CLEAR     34  28  79 CALM      29.88S
6HR MIN TEMP:  34; 6HR MAX TEMP:  56;

AUGUSTA        CLEAR     41  28  60 S5        29.89S
6HR MIN TEMP:  40; 6HR MAX TEMP:  50;

WATERVILLE     CLEAR     40  31  70 CALM      29.86S
BANGOR         PTCLDY    39  28  64 SW5       29.89S
6HR MIN TEMP:  36; 6HR MAX TEMP:  47;

GREENVILLE       N/A     39  32  76 CALM      29.83S
6HR MIN TEMP:  35; 6HR MAX TEMP:  46;

MILLINOCKET    MOCLDY    32  28  85 CALM      29.86F
6HR MIN TEMP:  32; 6HR MAX TEMP:  49;

HOULTON        PTCLDY    34  28  79 CALM      29.85S
6HR MIN TEMP:  33; 6HR MAX TEMP:  47;

PRESQUE ISLE   PTCLDY    30  28  92 CALM      29.87S
6HR MIN TEMP:  30; 6HR MAX TEMP:  42;

FRENCHVILLE    PTCLDY    37  27  67 W3        29.84S
6HR MIN TEMP:  35; 6HR MAX TEMP:  38;

CARIBOU        CLEAR     35  28  75 CALM      29.85S
6HR MIN TEMP:  34; 6HR MAX TEMP:  42;

$$

NHZ002-005-008-009-011-012-014-230100-
NEW HAMPSHIRE

CITY           SKY/WX    TMP DP  RH WIND       PRES   REMARKS
PORTSMOUTH     CLEAR     39  35  83 CALM      29.89R
ROCHESTER      CLEAR     40  29  64 CALM      29.90R
6HR MIN TEMP:  40; 6HR MAX TEMP:  56;

NASHUA         CLEAR     41  35  79 CALM      29.88R
MANCHESTER     CLEAR     50  35  56 SE8       29.87R
6HR MIN TEMP:  47; 6HR MAX TEMP:  59;

CONCORD        CLEAR     40  32  73 CALM      29.87S
6HR MIN TEMP:  39; 6HR MAX TEMP:  57;

PLYMOUTH       FAIR      35  31  86 CALM      29.87S
BERLIN         CLEAR     32  26  78 CALM      29.87R
6HR MIN TEMP:  32; 6HR MAX TEMP:  51;

WHITEFIELD     CLEAR     33  26  75 CALM      29.86S
6HR MIN TEMP:  32; 6HR MAX TEMP:  51;

JAFFREY        CLEAR     34  32  92 S3        29.88R
6HR MIN TEMP:  34; 6HR MAX TEMP:  56;

KEENE          CLEAR     38  33  82 CALM      29.88R
LEBANON        CLEAR     36  32  85 E5        29.86R
6HR MIN TEMP:  35; 6HR MAX TEMP:  57;

MT WASHINGTON  PTCLDY    34  -4  19 W25         N/A
6HR MIN TEMP:  31; 6HR MAX TEMP:  37;

$$

VTZ005-007-008-230100-
VERMONT

CITY           SKY/WX    TMP DP  RH WIND       PRES   REMARKS
ST JOHNSBURY     N/A     35  31  85 MISG      29.85S
MONTPELIER     CLEAR     37  32  82 S5        29.89R
BURLINGTON     PTCLDY    43  34  70 SE5       29.83F
$$

MAZ007-012-024-CTZ003-RIZ002-NYZ038-NYZ072-230100-
SOUTHERN NEW ENGLAND AND NY

CITY           SKY/WX    TMP DP  RH WIND       PRES   REMARKS
BOSTON         PTCLDY    42  37  82 E7        29.91R
WORCESTER      CLEAR     47  37  68 SW6       29.88S
NANTUCKET      CLOUDY    40  38  93 S3        29.94S
PROVIDENCE     PTCLDY    43  36  76 S3        29.91R
HARTFORD       MOCLDY    48  37  65 S7        29.89R
ALBANY         PTCLDY    47  34  60 CALM      29.87R
NEW YORK CITY  CLOUDY    52  43  71 S10       29.91R
$$

ANZ081-ANZ082-ANZ150-NHZ014-MEZ023>029-230100-
COASTAL MARINE OBSERVATIONS

STATION/POSITION TIME  TEMP    WIND        PRES    WAVE
                       AIR SEA DIR/SP/G            HT/PER
                 (UTC) (F)     (DEG/KT/KT) (MB)    (FT/S)
MOUNT DESERT ROC 0000   40                 1012.9R
MATINICUS ROCK   2300   40     230/  6/  7 1012.6R
ISLE OF SHOALS   2300   42     140/ 11/ 12 1012.0F
JEFFREYS LEDGE   2336      44                N/A     3/10
CASHES LEDGE BUO 2250   40 43              1012.9    3/10
GEORGES BANK BUO 2250   43 44              1014.3    4/10
$$

.............KEY..............
   WCI - WIND CHILL
   TC  - TEMPERATURE IN CELSIUS
   VSB - VISIBILITY IN MILES
   HX  - HEAT INDEX
   FAIR- INDICATES FEW OR NO CLOUDS BELOW 12,000 FT, WITH NO
         SIGNIFICANT WEATHER AND/OR OBSTRUCTIONS TO VISIBILITY.





USA.gov is the U.S. government's official web portal to all federal, state and local government web resources and services.